Location: ??????????
(48.4699°N, 37.9573°E)
Time: 13:35:47
(UTC+00:00)

SJ 16-02 - Pass Details

Date: 20 January 2021
Orbit: 606 x 615 km, 75.0° (Epoch: 27 February)

Event Time Altitude Azimuth Distance (km) Brightness Sun altitude
Rises 15:33:47 0° 176° (S) 2,865 4.9 -13.9°
Reaches altitude 10° 15:36:09 10° 167° (SSE) 1,964 4.0 -14.3°
Maximum altitude 15:40:07 34° 102° (ESE) 1,005 2.0 -14.9°
Enters shadow 15:41:50 25° 60° (ENE) 1,244 2.3 -15.2°
